Find Molniya-1

NORAD ID: 9880 Int'l Des: 1977-021 Owner: GUKOSR Country: SU operational
MEOELLIPTICALHEO_ELLIPTICALSEMI_SYNCMOLNIYA

Live-Position

3D-Globus wird geladen...

Über Molniya-1

Beschreibung wird geladen...

Nächste Überflüge

Passes for default location (London). Set your location on the main map for personalized predictions.

Höhenverlauf

Loading altitude history...

Zweizeiliger Elementsatz

1 09880U 77021A 26104.96325512 -.00000971 00000-0 00000-0 0 9996
2 09880 63.6571 117.0559 6727000 281.7780 15.0305 2.00558646257406
Epoch: 14. Apr. 2026 • Age: 45 hours

Aktueller Status

Höhe 25700.4 km
Geschwindigkeit 3.14 km/s
Subsatellitenpunkt 37.34°N, 127.95°E
Typ other

Most Searched